Lapse_Rate
5.9 5.8 6.2 6.4 6.3 6.0 5.8 6.1 6.1 6.0 5.9 5.9 6.1 6.2 6.2 6.1 6.1 6.1 6.1 6.1 5.8 5.7
6.2 5.8 5.9 5.8 5.5 5.2 5.5 6.0 5.8 5.7 5.8 6.0 6.3 6.3 6.3 6.1 6.0 5.9 5.9 5.8 5.6 5.6
5.8 5.8 5.8 5.9 5.2 5.4 5.6 4.9 5.4 5.7 5.9 6.2 6.1 6.1 6.0 5.9 5.7 5.6 5.7 5.8 5.8 5.7
5.8 5.5 5.3 4.6 4.6 4.5 4.5 5.1 5.6 5.8 6.1 6.1 5.9 5.8 5.7 5.7 5.6 5.8 6.0 6.0 5.9 6.0
5.1 4.9 4.2 4.7 5.2 5.2 5.1 5.4 5.6 6.0 5.9 5.7 5.6 5.6 5.5 5.6 5.8 6.0 6.1 6.0 6.0 6.3
5.3 5.3 5.2 5.3 5.3 5.2 5.6 5.9 6.0 5.8 5.7 5.7 5.7 5.7 5.8 6.1 6.1 6.0 6.1 6.3 6.4 6.4
5.4 5.3 5.7 5.0 5.7 5.9 5.9 5.8 5.8 5.8 5.8 5.8 5.9 6.0 6.1 6.0 6.2 6.3 6.6 6.5 6.5 6.6
5.9 5.8 5.1 5.6 5.6 5.8 5.8 5.8 5.9 6.0 5.8 6.1 6.2 6.4 6.1 6.1 6.3 6.4 6.5 6.5 6.7 7.0
6.5 6.0 5.5 5.4 5.7 5.8 5.8 5.9 6.1 6.1 6.3 6.3 6.2 5.9 6.0 6.3 6.3 6.2 6.3 6.7 7.0 7.1
6.2 5.9 5.6 5.5 5.6 5.9 5.9 6.0 6.1 6.1 6.2 6.1 6.1 6.0 6.0 6.2 6.1 6.2 6.7 6.9 7.0 7.0
6.2 5.9 5.4 5.6 5.8 5.7 5.8 5.9 6.1 6.3 6.1 5.8 5.6 5.8 6.1 6.2 6.1 6.5 6.7 6.7 6.9 6.9
6.2 5.9 5.8 5.8 5.6 5.3 5.8 5.9 6.0 5.7 5.5 5.4 5.6 5.9 6.1 6.1 6.4 6.6 6.5 6.7 6.8 6.7
5.8 5.7 5.7 5.8 5.3 5.8 5.9 5.9 5.7 5.6 5.6 5.7 5.9 6.0 6.1 6.4 6.6 6.3 6.3 6.5 6.5 6.5
5.9 5.8 5.9 5.6 5.9 5.9 5.8 5.8 5.7 5.6 5.7 5.8 6.0 6.0 6.1 6.3 6.2 6.0 6.3 6.4 6.4 6.4
Wind_Speed
16 10 11 10 10 8 7 8 12 12 13 13 14 12 10 6 5 6 7 8 5 4
12 13 12 13 11 8 9 8 12 12 12 14 13 10 9 6 6 6 6 6 5 5
11 12 12 11 11 10 9 11 11 10 11 12 11 9 8 6 6 6 5 5 6 5
12 12 12 11 10 9 10 10 9 9 9 9 9 9 7 8 7 7 7 6 6 7
12 12 11 11 10 10 10 12 10 10 9 8 8 8 7 7 7 8 7 7 7 7
11 12 11 11 11 10 11 11 11 10 9 8 8 7 7 7 7 7 6 6 6 6
10 11 11 11 11 11 10 11 10 9 9 8 7 8 7 5 6 5 7 6 5 5
12 11 12 12 11 10 10 10 11 11 8 8 7 6 5 3 6 6 6 5 5 5
13 13 11 11 11 10 9 10 10 9 8 8 7 11 8 4 6 6 5 4 5 4
15 13 13 11 10 10 9 9 9 9 9 8 8 10 9 8 5 5 5 5 5 5
13 14 12 11 10 9 9 8 8 9 8 6 6 10 11 8 6 5 5 5 6 7
12 13 12 12 10 8 8 8 8 7 7 7 6 13 13 8 5 4 4 4 6 7
11 12 13 12 11 9 8 8 7 7 7 6 7 10 13 8 4 3 3 5 5 8
11 12 11 11 9 9 8 8 8 8 6 7 6 7 11 11 4 3 4 5 5 5
Wind_Direction
144 146 144 144 143 138 139 129 124 115 106 102 98 90 80 75 75 76 73 67 54 65
141 142 143 137 131 130 128 125 119 111 103 94 91 95 89 73 70 75 70 67 58 57
125 124 126 122 121 124 124 116 117 112 106 100 93 86 88 82 73 78 71 64 63 46
116 118 118 115 118 126 119 119 122 118 108 93 83 76 81 85 87 80 68 59 50 46
117 121 116 122 128 127 121 130 122 116 103 92 81 73 73 84 75 72 70 56 48 42
128 129 135 136 135 134 132 131 122 121 115 102 90 80 66 78 80 76 69 55 52 50
138 145 140 140 139 133 133 135 131 122 110 105 89 73 50 71 90 88 80 56 49 51
142 142 144 139 131 130 136 141 137 125 122 107 102 78 63 89 89 84 67 63 50 51
147 147 142 134 134 138 137 136 126 128 121 106 86 87 78 81 80 64 61 53 52 58
147 146 143 142 145 140 132 134 134 129 115 107 104 96 82 67 76 50 46 44 40 33
149 145 142 142 143 135 140 141 133 123 121 116 101 111 78 73 88 49 29 36 32 19
145 140 147 148 142 145 146 138 121 117 145 160 116 106 75 68 73 53 25 39 31 19
148 153 155 144 148 150 145 135 139 144 139 140 106 80 87 63 70 43 12 32 25 27
149 155 144 141 146 148 153 155 151 144 138 113 102 83 72 62 70 9 18 22 12 7